Weather History for Dallas Love, TX

Change the Weather History Date:

Saturday, November 5, 2011

  Actual Average Record
Temperature  
Mean Temperature 14 °C -  
Max Temperature 22 °C 18 °C 30 °C (2005)
Min Temperature 8 °C 10 °C 3 °C (2010)
Degree Days  
Heating Degree Days 7    
Growing Degree Days 8 (Base 50)    
Moisture  
Dew Point 6 °C    
Average Humidity 58    
Maximum Humidity 77    
Minimum Humidity 38    
Precipitation  
Precipitation 0.00 mm - - ()
Sea Level Pressure  
Sea Level Pressure 1015 hPa    
Wind  
Wind Speed 21 km/h (SE)    
Max Wind Speed 29 km/h    
Max Gust Speed 45 km/h    
Visibility 16 kilometers    
Events      
Averages and records for this station are not official NWS values.
T = Trace of Precipitation, MM = Missing Value Source: NWS Daily Summary

Daily Weather History Graph

Daily Weather History Graph

Search for Another Location

Airport:

Trip Planner

Search our weather history database for the weather conditions in past years. The results will help you decide how hot, cold, wet, or windy it might be!

Date:

Astronomy

Nov. 05, 2011 Rise Set
Actual Time 7:48 AM CDT 6:33 PM CDT
Civil Twilight 7:22 AM CDT 6:58 PM CDT
Nautical Twilight 6:53 AM CDT 7:28 PM CDT
Astronomical Twilight 6:24 AM CDT 7:56 PM CDT
Moon 3:39 PM CDT (11/5) 3:13 AM CDT (11/5)
Length of Visible Light 11h 35m
Length of Day
10h 44m
Waxing Gibbous, 78% of the Moon is Illuminated
Nov 5
Waxing Gibbous
Nov 10
Full
Nov 18
Last Quarter
Nov 25
New
Dec 2
First Quarter

Hourly Weather History & Observations

Time (CDT) Temp. Windchill Dew Point Humidity Pressure Visibility Wind Dir Wind Speed Gust Speed Precip Events Conditions
12:53 AM 9.4 °C - 2.2 °C 61% 1018.3 hPa 16.1 km SE 11.1 km/h / 3.1 m/s - N/A   Partly Cloudy
1:53 AM 10.6 °C - 2.2 °C 56% 1018.1 hPa 16.1 km ESE 14.8 km/h / 4.1 m/s - N/A   Partly Cloudy
2:53 AM 10.0 °C - 3.9 °C 66% 1017.9 hPa 16.1 km SE 20.4 km/h / 5.7 m/s - N/A   Clear
3:53 AM 10.0 °C - 4.0 °C 66% 1017.7 hPa 16.1 km SE 22.2 km/h / 6.2 m/s - N/A   Clear
4:53 AM 8.3 °C - 4.4 °C 77% 1017.7 hPa 16.1 km SE 14.8 km/h / 4.1 m/s - N/A   Clear
5:53 AM 8.9 °C - 4.4 °C 74% 1017.9 hPa 16.1 km ESE 16.7 km/h / 4.6 m/s - N/A   Clear
6:53 AM 8.0 °C 4.8 °C 4.0 °C 76% 1017.8 hPa 16.1 km SE 20.4 km/h / 5.7 m/s - N/A   Clear
7:53 AM 8.3 °C - 4.4 °C 77% 1017.8 hPa 16.1 km SE 24.1 km/h / 6.7 m/s - N/A   Partly Cloudy
8:53 AM 9.4 °C - 5.6 °C 77% 1017.7 hPa 16.1 km SE 27.8 km/h / 7.7 m/s - N/A   Partly Cloudy
9:53 AM 11.0 °C - 6.0 °C 71% 1017.8 hPa 16.1 km SE 25.9 km/h / 7.2 m/s - N/A   Scattered Clouds
10:53 AM 13.3 °C - 6.1 °C 62% 1017.7 hPa 16.1 km SSE 22.2 km/h / 6.2 m/s 31.5 km/h / 8.7 m/s N/A   Scattered Clouds
11:53 AM 16.1 °C - 4.0 °C 45% 1017.0 hPa 16.1 km SSE 24.1 km/h / 6.7 m/s - N/A   Mostly Cloudy
12:53 PM 18.6 °C - 4.0 °C 38% 1015.1 hPa 16.1 km SSE 27.8 km/h / 7.7 m/s 38.9 km/h / 10.8 m/s N/A   Mostly Cloudy
1:53 PM 18.3 °C - 3.6 °C 38% 1013.1 hPa 16.1 km SSE 29.6 km/h / 8.2 m/s 44.4 km/h / 12.3 m/s N/A   Mostly Cloudy
2:53 PM 19.3 °C - 4.5 °C 38% 1011.9 hPa 16.1 km SSE 29.6 km/h / 8.2 m/s 42.6 km/h / 11.8 m/s N/A   Mostly Cloudy
3:53 PM 20.1 °C - 6.4 °C 41% 1011.4 hPa 16.1 km SE 27.8 km/h / 7.7 m/s 42.6 km/h / 11.8 m/s N/A   Mostly Cloudy
4:53 PM 21.1 °C - 7.8 °C 42% 1011.1 hPa 16.1 km SSE 25.9 km/h / 7.2 m/s - N/A   Mostly Cloudy
5:53 PM 20.0 °C - 7.8 °C 45% 1011.1 hPa 16.1 km SSE 25.9 km/h / 7.2 m/s 35.2 km/h / 9.8 m/s N/A   Mostly Cloudy
6:53 PM 18.9 °C - 8.3 °C 50% 1010.9 hPa 16.1 km SE 24.1 km/h / 6.7 m/s - N/A   Mostly Cloudy
7:53 PM 18.3 °C - 8.9 °C 54% 1011.3 hPa 16.1 km SE 24.1 km/h / 6.7 m/s - N/A   Partly Cloudy
8:53 PM 18.3 °C - 9.4 °C 56% 1011.6 hPa 16.1 km SE 29.6 km/h / 8.2 m/s - N/A   Mostly Cloudy
9:53 PM 17.8 °C - 10.0 °C 60% 1011.2 hPa 16.1 km SE 29.6 km/h / 8.2 m/s - N/A   Partly Cloudy
10:53 PM 17.8 °C - 10.6 °C 63% 1011.6 hPa 16.1 km SE 22.2 km/h / 6.2 m/s - N/A   Partly Cloudy
11:53 PM 18.3 °C - 11.7 °C 65% 1011.8 hPa 16.1 km SSE 25.9 km/h / 7.2 m/s - N/A   Partly Cloudy